Location: *
(43.0409°N, 0.1694°E)
Time: 21:35:32
(UTC+00:00)

ATLAS 2AS CENTAUR R/B - Pass Details

Date: 03 October 2023
Orbit: 1000 x 1211 km, 63.7° (Epoch: 02 December)

Event Time Altitude Azimuth Distance (km) Brightness Sun altitude
Exits shadow 03:52:56 21° 308° (NW) 2,369 4.2 -23.5°
Maximum altitude 03:54:56 23° 331° (NNW) 2,231 4.2 -23.1°
Drops below altitude 10° 04:00:28 10° 21° (NNE) 2,997 5.5 -22.2°
Sets 04:03:47 0° 36° (NE) 3,919 6.5 -21.6°
